TimeEDT,TemperatureF,Dew PointF,Humidity,Sea Level PressureIn,VisibilityMPH,Wind Direction,Wind SpeedMPH,Gust SpeedMPH,PrecipitationIn,Events,Conditions,WindDirDegrees,DateUTC
12:15 AM,16.7,1.4,51,30.35,10.0,Calm,Calm,-,N/A,,Clear,0,2013-03-18 04:15:00
12:35 AM,14.4,3.0,61,30.36,10.0,Calm,Calm,-,N/A,,Clear,0,2013-03-18 04:35:00
12:55 AM,11.8,2.8,67,30.37,10.0,Calm,Calm,-,N/A,,Clear,0,2013-03-18 04:55:00
1:15 AM,12.7,3.4,66,30.38,10.0,Calm,Calm,-,N/A,,Clear,0,2013-03-18 05:15:00
1:35 AM,14.4,3.9,63,30.38,10.0,Calm,Calm,-,N/A,,Clear,0,2013-03-18 05:35:00
1:55 AM,13.3,3.6,65,30.38,10.0,Calm,Calm,-,N/A,,Clear,0,2013-03-18 05:55:00
2:15 AM,12.7,2.3,63,30.39,10.0,Calm,Calm,-,N/A,,Clear,0,2013-03-18 06:15:00
2:35 AM,9.3,1.8,71,30.39,10.0,Calm,Calm,-,N/A,,Clear,0,2013-03-18 06:35:00
2:55 AM,9.3,2.1,73,30.38,10.0,Calm,Calm,-,N/A,,Clear,0,2013-03-18 06:55:00
3:15 AM,9.3,2.5,74,30.38,10.0,Calm,Calm,-,N/A,,Clear,0,2013-03-18 07:15:00
3:35 AM,9.5,2.8,74,30.38,10.0,SSE,3.5,-,N/A,,Clear,150,2013-03-18 07:35:00
3:55 AM,9.3,2.7,74,30.38,10.0,Calm,Calm,-,N/A,,Clear,0,2013-03-18 07:55:00
4:15 AM,9.3,3.6,77,30.38,10.0,Calm,Calm,-,N/A,,Clear,0,2013-03-18 08:15:00
4:35 AM,9.9,4.1,78,30.38,10.0,ESE,3.5,-,N/A,,Clear,120,2013-03-18 08:35:00
4:55 AM,9.3,3.6,77,30.39,10.0,Calm,Calm,-,N/A,,Clear,0,2013-03-18 08:55:00
5:15 AM,9.3,3.9,79,30.39,10.0,Calm,Calm,-,N/A,,Clear,0,2013-03-18 09:15:00
5:35 AM,9.3,3.9,79,30.40,10.0,SE,3.5,-,N/A,,Clear,130,2013-03-18 09:35:00
5:55 AM,9.3,4.1,79,30.41,10.0,Calm,Calm,-,N/A,,Clear,0,2013-03-18 09:55:00
6:15 AM,9.3,3.9,79,30.42,10.0,Calm,Calm,-,N/A,,Clear,0,2013-03-18 10:15:00
6:35 AM,9.3,4.5,81,30.43,10.0,Calm,Calm,-,N/A,,Clear,0,2013-03-18 10:35:00
6:55 AM,9.3,4.5,81,30.43,10.0,Calm,Calm,-,N/A,,Clear,0,2013-03-18 10:55:00
7:15 AM,9.3,4.1,79,30.43,10.0,Calm,Calm,-,N/A,,Clear,0,2013-03-18 11:15:00
7:35 AM,9.3,4.1,79,30.43,10.0,Calm,Calm,-,N/A,,Clear,0,2013-03-18 11:35:00
7:55 AM,11.8,5.9,77,30.43,10.0,Calm,Calm,-,N/A,,Clear,0,2013-03-18 11:55:00
8:15 AM,14.4,7.7,75,30.43,10.0,SE,3.5,-,N/A,,Clear,130,2013-03-18 12:15:00
8:35 AM,15.6,7.5,70,30.44,10.0,Calm,Calm,-,N/A,,Clear,0,2013-03-18 12:35:00
8:55 AM,17.6,7.3,64,30.45,10.0,Calm,Calm,-,N/A,,Clear,0,2013-03-18 12:55:00
9:15 AM,19.8,6.6,57,30.44,10.0,Calm,Calm,-,N/A,,Clear,0,2013-03-18 13:15:00
9:35 AM,20.8,4.5,49,30.45,10.0,Calm,Calm,-,N/A,,Clear,0,2013-03-18 13:35:00
9:55 AM,22.1,3.4,45,30.45,10.0,Calm,Calm,-,N/A,,Clear,0,2013-03-18 13:55:00
10:15 AM,24.4,3.0,40,30.44,10.0,East,4.6,-,N/A,,Clear,100,2013-03-18 14:15:00
10:35 AM,24.6,-0.0,34,30.44,10.0,ESE,4.6,-,N/A,,Clear,120,2013-03-18 14:35:00
10:55 AM,27.0,1.6,34,30.44,10.0,SSE,4.6,-,N/A,,Clear,160,2013-03-18 14:55:00
11:15 AM,27.0,5.2,40,30.43,10.0,SW,3.5,-,N/A,,Clear,220,2013-03-18 15:15:00
11:35 AM,27.3,3.4,36,30.43,10.0,South,4.6,-,N/A,,Clear,170,2013-03-18 15:35:00
11:55 AM,29.3,0.3,29,30.43,10.0,SSW,4.6,-,N/A,,Clear,210,2013-03-18 15:55:00
12:15 PM,29.3,-0.4,28,30.42,10.0,SSW,3.5,-,N/A,,Clear,200,2013-03-18 16:15:00
12:35 PM,29.8,1.4,30,30.41,10.0,SE,3.5,-,N/A,,Clear,130,2013-03-18 16:35:00
12:55 PM,29.3,1.2,30,30.41,10.0,North,3.5,-,N/A,,Clear,10,2013-03-18 16:55:00
1:15 PM,31.6,1.2,27,30.39,10.0,Calm,Calm,-,N/A,,Clear,0,2013-03-18 17:15:00
1:35 PM,32.0,2.8,29,30.37,10.0,North,3.5,-,N/A,,Clear,350,2013-03-18 17:35:00
1:55 PM,32.0,2.8,29,30.36,10.0,Calm,Calm,-,N/A,,Clear,0,2013-03-18 17:55:00
2:15 PM,31.3,3.2,30,30.35,10.0,WNW,4.6,-,N/A,,Clear,290,2013-03-18 18:15:00
2:35 PM,32.0,3.6,30,30.33,10.0,North,6.9,-,N/A,,Clear,350,2013-03-18 18:35:00
2:55 PM,32.4,4.3,31,30.32,10.0,WNW,4.6,-,N/A,,Clear,300,2013-03-18 18:55:00
3:15 PM,33.8,6.8,32,30.30,10.0,North,5.8,-,N/A,,Clear,10,2013-03-18 19:15:00
3:35 PM,34.2,8.2,34,30.29,10.0,NNE,4.6,-,N/A,,Clear,30,2013-03-18 19:35:00
3:55 PM,34.2,3.0,27,30.29,10.0,NE,6.9,-,N/A,,Clear,50,2013-03-18 19:55:00
4:15 PM,34.2,4.1,28,30.28,10.0,NNE,3.5,-,N/A,,Clear,30,2013-03-18 20:15:00
4:35 PM,34.2,0.3,24,30.27,10.0,ENE,4.6,-,N/A,,Clear,60,2013-03-18 20:35:00
4:55 PM,34.2,0.9,24,30.25,10.0,East,5.8,-,N/A,,Clear,80,2013-03-18 20:55:00
5:15 PM,34.2,0.7,24,30.24,10.0,East,3.5,-,N/A,,Clear,80,2013-03-18 21:15:00
5:35 PM,34.2,0.9,24,30.23,10.0,ENE,4.6,-,N/A,,Clear,60,2013-03-18 21:35:00
5:55 PM,34.2,1.4,25,30.23,10.0,ENE,3.5,-,N/A,,Clear,60,2013-03-18 21:55:00
6:15 PM,34.2,2.3,26,30.22,10.0,ENE,4.6,-,N/A,,Clear,60,2013-03-18 22:15:00
6:35 PM,32.2,1.6,27,30.20,10.0,ENE,5.8,-,N/A,,Clear,70,2013-03-18 22:35:00
6:55 PM,32.0,1.9,28,30.18,10.0,ENE,5.8,-,N/A,,Clear,60,2013-03-18 22:55:00
7:15 PM,31.6,2.7,29,30.18,10.0,NE,3.5,-,N/A,,Clear,40,2013-03-18 23:15:00
7:35 PM,30.7,2.7,30,30.18,10.0,Calm,Calm,-,N/A,,Clear,0,2013-03-18 23:35:00
7:55 PM,30.6,2.3,30,30.19,10.0,Calm,Calm,-,N/A,,Clear,0,2013-03-18 23:55:00
8:15 PM,30.0,5.4,35,30.18,10.0,ENE,3.5,-,N/A,,Clear,60,2013-03-19 00:15:00
8:35 PM,29.7,5.9,37,30.17,10.0,East,5.8,-,N/A,,Clear,80,2013-03-19 00:35:00
8:55 PM,29.5,6.4,38,30.16,10.0,East,5.8,-,N/A,,Clear,80,2013-03-19 00:55:00
9:15 PM,29.5,6.4,38,30.17,10.0,ENE,3.5,-,N/A,,Clear,70,2013-03-19 01:15:00
9:35 PM,30.0,6.1,36,30.17,10.0,Calm,Calm,-,N/A,,Clear,0,2013-03-19 01:35:00
9:55 PM,29.3,8.1,41,30.15,10.0,East,4.6,-,N/A,,Clear,90,2013-03-19 01:55:00
10:15 PM,30.0,6.8,38,30.14,10.0,East,4.6,-,N/A,,Clear,90,2013-03-19 02:15:00
10:35 PM,30.7,7.3,37,30.13,10.0,East,3.5,-,N/A,,Mostly Cloudy,90,2013-03-19 02:35:00
10:55 PM,31.5,7.2,36,30.11,10.0,East,3.5,-,N/A,,Overcast,100,2013-03-19 02:55:00
11:15 PM,32.0,5.5,33,30.09,10.0,East,6.9,-,N/A,,Overcast,100,2013-03-19 03:15:00
11:55 PM,34.0,6.8,32,30.08,10.0,ESE,4.6,-,N/A,,Overcast,120,2013-03-19 03:55:00